This demonstration page uses our WeatherBlox Daily Observations layout. Learn more.

Left ArrowRight Arrow

40.97296, -117.73568

Hourly Observations for July 5, 2022

Temp ( °F °C ) Dew Point ( °F °C ) Humidity (%) Winds ( mph kmh ) Pressure ( in mb ) Visibility ( mi km ) Precip ( " mm )
12:56 am 00:56 Clear 67 19.4 32 0 27 27 W 8 13 29.83 1010 10 16 0.00 0.00
1:56 am 01:56 Clear 67 19.4 35 1.7 31 31 WNW 8 13 29.84 1010 10 16 0.00 0.00
2:56 am 02:56 Clear 64 17.8 36 2.2 35 35 Calm 29.85 1011 10 16 0.00 0.00
3:56 am 03:56 Clear 61 16.1 36 2.2 39 39 Calm 29.86 1011 10 16 0.00 0.00
4:56 am 04:56 Clear 57 13.9 37 2.8 47 47 W 6 9 29.87 1011 10 16 0.00 0.00
5:56 am 05:56 Sunny 57 13.9 39 3.9 51 51 WNW 3 6 29.88 1012 10 16 0.00 0.00
6:56 am 06:56 Sunny 63 17.2 40 4.4 43 43 Calm 29.88 1012 10 16 0.00 0.00
7:56 am 07:56 Sunny 70 21.1 42 5.6 37 37 W 8 13 29.88 1012 10 16 0.00 0.00
8:56 am 08:56 Sunny 72 22.2 41 5 33 33 Calm 29.88 1012 10 16 0.00 0.00
9:56 am 09:56 Sunny 75 23.9 41 5 29 29 VRB 3 6 29.87 1012 10 16 0.00 0.00
10:56 am 10:56 Sunny 78 25.6 41 5 27 27 VRB 6 9 29.85 1011 10 16 0.00 0.00
11:56 am 11:56 Sunny 81 27.2 39 3.9 22 22 Calm 29.83 1010 10 16 0.00 0.00
12:56 pm 12:56 Sunny 84 28.9 37 2.8 19 19 undefined N/A 29.80 1009 10 16 0.00 0.00
1:56 pm 13:56 Sunny 84 28.9 37 2.8 19 19 undefined N/A 29.78 1009 10 16 0.00 0.00
2:56 pm 14:56 Mostly Sunny 87 30.6 37 2.8 17 17 NE 5 7 29.76 1008 10 16 0.00 0.00
3:56 pm 15:56 Mostly Sunny 91 32.8 36 2.2 14 14 undefined N/A 29.74 1007 10 16 0.00 0.00
4:56 pm 16:56 Sunny 90 32.2 36 2.2 15 15 WSW 16 26 29.73 1007 10 16 0.00 0.00
5:56 pm 17:56 Sunny 88 31.1 33 0.6 14 14 W 8 13 29.72 1007 10 16 0.00 0.00
6:56 pm 18:56 Sunny 86 30 37 2.8 18 18 W 13 20 29.72 1007 10 16 0.00 0.00
7:56 pm 19:56 Sunny 81 27.2 39 3.9 22 22 W 14 22 29.73 1007 10 16 0.00 0.00
8:56 pm 20:56 Clear 74 23.3 39 3.9 28 28 W 6 9 29.76 1008 10 16 0.00 0.00
9:56 pm 21:56 Clear 72 22.2 39 3.9 30 30 WSW 9 15 29.78 1009 10 16 0.00 0.00
10:56 pm 22:56 Clear 72 22.2 41 5 33 33 W 7 11 29.80 1009 10 16 0.00 0.00
11:56 pm 23:56 Clear 71 21.7 40 4.4 32 32 VRB 5 7 29.81 1010 10 16 0.00 0.00

Powered by AerisWeather